Location: Eaglesham
(55.7833°N, 117.9000°W)
Time: 09:48:17
(UTC+00:00)

ISS - Pass Details

Date: 29 November 2021
Orbit: 413 x 422 km, 51.6° (Epoch: 23 January)

Event Time Altitude Azimuth Distance (km) Brightness Sun altitude
Rises 02:04:23 0° 262° (W) 2,384 1.7 -21.0°
Reaches altitude 10° 02:06:34 10° 255° (WSW) 1,516 0.2 -21.3°
Enters shadow 02:09:34 40° 195° (SSW) 643 -2.7 -21.8°
